Location: Ravencliff
(37.6982°N, 81.4812°W)
Time: 18:50:06
(UTC+00:00)

ACS3 Solar Sail - Pass Details

Date: 27 April 2026
Orbit: 894 x 947 km, 97.2° (Epoch: 12 May)

Event Time Altitude Azimuth Distance (km) Brightness Sun altitude
Rises 05:29:30 0° 24° (NNE) 3,568 5.6 -38.4°
Reaches altitude 10° 05:32:19 10° 36° (NE) 2,630 4.6 -38.4°
Enters shadow 05:34:50 21° 57° (ENE) 1,958 3.6 -38.4°
